Retour au catalogue

STARLINK-11286

ActifCommunicationsVLEO
NORAD 61050·PAYLOAD·🇺🇸 United States

Lancé Sep 13, 2024 depuis Vandenberg Space Force Base

Loading…

Prochains Passages (prochaines 24 heures)

TLE

FraisSource: CelesTrak SupGP

Époque: Sep 15, 2026, 01:58 UTC

1 61050C 24164A   26258.08243056  .00071193  00000+0  58616-3 0  2587
2 61050  53.1565  97.6516 0001120  86.0282 321.3783 15.69685275    15

Suivez STARLINK-11286 en temps réel avec AllMySat

Download on the App Store